Retour au catalogue

SL-16 DEB

ActifLEO
NORAD 22387·DEBRIS·🇷🇺 Russia

Lancé Dec 25, 1992 depuis Baikonur Cosmodrome

Loading…

Prochains Passages (prochaines 24 heures)

TLE

FraisSource: Space-Track

Époque: Sep 14, 2026, 06:18 UTC

1 22387U 92093CC  26257.26295461  .00000135  00000-0  10287-3 0  9992
2 22387  70.8871 107.0909 0105967  31.2768  89.1848 14.07380397719485

Suivez SL-16 DEB en temps réel avec AllMySat

Download on the App Store